Overview Statistics Trail Chart Weather Telemetry Raw packets
 

This is the latest recevied weather packets stored in our database for station/object KF0WJA. If no packets are shown the sender has not sent any weather packets the latest 10 day(s).

<< 41 42 43 44 45 46 47 >>
Time Temp. Humidity Pressure Rain* Wind** Luminosity Snow
1788384363 37.78° C 35% 1014.8 hPa 0 mm - 543 W/m² -
1788384059 36.67° C 36% 1014.8 hPa 0 mm - 557 W/m² -
1788383755 37.78° C 34% 1015 hPa 0 mm - 561 W/m² -
1788383450 37.22° C 35% 1015.1 hPa 0 mm - 567 W/m² -
1788383150 36.67° C 37% 1014.9 hPa 0 mm - 132 W/m² -
1788382850 37.78° C 34% 1015.2 hPa 0 mm - 558 W/m² -
1788382568 37.78° C 34% 1015.1 hPa 0 mm - 622 W/m² -
1788382245 37.78° C 33% 1015.2 hPa 0 mm - 631 W/m² -
1788381944 37.78° C 34% 1015.3 hPa 0 mm - 656 W/m² -
1788381639 37.22° C 35% 1015.2 hPa 0 mm - 690 W/m² -
1788381335 37.22° C 36% 1015.3 hPa 0 mm - 177 W/m² -
1788381034 36.67° C 37% 1015.3 hPa 0 mm - 687 W/m² -
1788380730 37.78° C 34% 1015.7 hPa 0 mm - 661 W/m² -
1788380426 37.78° C 35% 1015.5 hPa 0 mm - 666 W/m² -
1788380122 37.78° C 33% 1015.6 hPa 0 mm - 678 W/m² -
1788379821 37.78° C 34% 1015.6 hPa 0 mm - 695 W/m² -
1788379516 38.33° C 34% 1015.7 hPa 0 mm - 667 W/m² -
1788379220 37.78° C 34% 1015.7 hPa 0 mm - 652 W/m² -
1788378908 37.78° C 33% 1016 hPa 0 mm - 668 W/m² -
1788378607 37.78° C 35% 1015.8 hPa 0 mm - 677 W/m² -
1788378307 37.78° C 34% 1016 hPa 0 mm - 684 W/m² -
1788378002 37.22° C 35% 1016 hPa 0 mm - 597 W/m² -
1788377698 37.78° C 35% 1016.2 hPa 0 mm - 655 W/m² -
1788377396 37.78° C 33% 1016.2 hPa 0 mm - 685 W/m² -
1788377095 38.33° C 35% 1016.3 hPa 0 mm - 684 W/m² -

* Rain latest hour (hover to see other rain measurements)
** Current wind speed in m/s (hover to see current wind gust speed)